FENGYUN 1C DEB

Satellite information

Favourite Embed

Satellite Type and Status

DEBRISIN ORBIT

Key statistics

Satellite FENGYUN 1C DEB at a glance.

Uptime

9715

Days in orbit

Revolutions

≈ 14.2

Per day

Orbit

SSO

Sun Synchronous Orbit

Inclination

99.7

Latest

Satellite identification and parameters

Extended collection of information and parameters for FENGYUN 1C DEB.

Object identification

Identified? True

Debris? True

Object name: FENGYUN 1C DEB

International designator: 1999-025ERE

Object number (NORAD): 38157

Object ID (CCSDS): 38157

Country: PEOPLES REPUBLIC OF CHINA (PRC)

Current information (Y/N): Y

RCS size: SMALL

Orbital parameters

Period: 101.284 minutes

Inclination: 99.6561 deg

SMA: 7197.613 km

Apoapsis: 1016.781 km

Periapsis: 622.175 km

RAAN: 254.2014 deg

Eccentricy: 0.02741228

Argument of periapsis: 113.0668 deg

Mean anomaly: 249.9657 deg

Mean motion: 14.21739524 rev/day

Mean motion (dot): 0.00003021 rev/day2

B* drag term: 0.00095428198 1/REarth

Two-line elements (TLE)

Creation date: Dec. 13, 2025, 5:47 p.m.

Reference frame: TEME

Reference center: EARTH

Epoch: Dec. 13, 2025, 4:45 a.m. UTC

TLE line 0: 0 FENGYUN 1C DEB

TLE line 1: 1 38157U 99025ERE 25347.19822277 .00003021 00000-0 95428-3 0 9995

TLE line 2: 2 38157 99.6561 254.2014 0274123 113.0668 249.9657 14.21739524762548

Live tracking on map

Real-time ground track for satellite FENGYUN 1C DEB.

In-orbit conjunctions

A list of the most updated potential collisions computed for object FENGYUN 1C DEB.

Target Orbit TCA Probability of collision Miss distance Type
SL-14 R/B LEO 2025-04-15 04:58:52 0.0002000038 203.0 (m) ROCKET BODY
COSMOS 1349 LEO 2025-03-15 12:47:02 0.0001379428 204.0 (m) PAYLOAD
SL-8 R/B LEO 2025-02-07 13:28:22 0.0006284817 65.0 (m) ROCKET BODY

Associated space launch

Chinese polar orbiting meteorological satellite

FENGYUN 1C DEB was lifted into orbit during the mission ‘Long March 4B | Feng Yun 1C’, on board a Long March 4B space rocket.

The launch took place on May 10, 1999, 1:33 a.m. from Launch Complex 7.

For more information about the launch, click the button.

Launch to space Long March 4B | Feng Yun 1C
Long March 4B | Feng Yun 1C

Agency: N/A

Status: Launch Successful

Launch date: May 10, 1999, 1:33 a.m. UTC

Rocket: Long March 4B

Launch pad: Launch Complex 7

Location: Taiyuan Satellite Launch Center, People's Republic of China

...

Latest news about this satellite

There are no fresh news available about this satellite. Check back as we update our databases every day.


Newsletter sign-up

Weekly statistics, charts and insights to help you stay on top of the space industry.